Location: Aldenham
(51.6667°N, 0.3500°W)
Time: 01:02:56
(UTC+00:00)

Altair - Pass Details

Date: 18 February 2026
Orbit: 1502 x 1682 km, 47.2° (Epoch: 9 March)

Event Time Altitude Azimuth Distance (km) Brightness Sun altitude
Rises 07:03:26 0° 259° (WSW) 4,652 9.5 -1.8°
Reaches altitude 10° 07:06:27 10° 257° (WSW) 3,684 9.0 -1.3°
Maximum altitude 07:15:39 69° 177° (S) 1,652 7.9 0.0°
Drops below altitude 10° 07:25:12 10° 97° (E) 3,815 11.5 1.4°
Sets 07:28:22 0° 95° (E) 4,825 12.0 1.9°
